Starlink 30519

operational
NORAD ID: 57985 Int'l Des: 2023-151 Owner: SPXS Country: US Constellation: starlink
LEOCIRCULAR

Starlink 30519について

説明を読み込み中...

リアルタイム位置

3D地球を読み込み中...

次回通過

高度履歴

Altitude vs Time

uPlot chart will show altitude changes over time

軌道要素

1 57985U 23151X 25349.68680543 .00001476 00000-0 12431-3 0 9991
2 57985 43.0031 88.2745 0001398 257.2462 102.8224 15.02533403122886
Epoch: Dec 15, 2025 • Age: 29 hours

現在のステータス

高度 560.3 km
速度 7.59 km/s
衛星直下点 29.55°N, 72.06°E
打ち上げ日 Sep 30, 2023
運用期間 2.2 years
タイプ internet

技術仕様

分類 Payload
質量 730.00 kg
乾燥質量 700.00 kg
総質量 730.00 kg
長さ 0.30 m
直径 4.10 m
スパン 29.00 m
形状 Box + pan
製造者 SPXS
バスタイプ Starlink V2M
フェーズステータス In Orbit
所有者/国 SPXS/US

大規模コンステレーション

Loading constellations...